TimeEST,TemperatureF,Dew PointF,Humidity,Sea Level PressureIn,VisibilityMPH,Wind Direction,Wind SpeedMPH,Gust SpeedMPH,PrecipitationIn,Events,Conditions,WindDirDegrees,DateUTC
12:51 AM,12.9,10.9,92,30.41,8.0,Calm,Calm,-,N/A,,Overcast,0,2013-02-22 05:51:00
1:51 AM,14.0,10.9,88,30.37,10.0,Calm,Calm,-,N/A,,Overcast,0,2013-02-22 06:51:00
2:51 AM,12.9,10.0,88,30.37,10.0,Calm,Calm,-,N/A,,Overcast,0,2013-02-22 07:51:00
3:19 AM,12.2,10.4,92,30.24,10.0,Calm,Calm,-,N/A,,Overcast,0,2013-02-22 08:19:00
3:51 AM,9.0,6.1,88,30.34,10.0,Calm,Calm,-,N/A,,Partly Cloudy,0,2013-02-22 08:51:00
4:51 AM,3.0,1.0,91,30.36,10.0,Calm,Calm,-,N/A,,Clear,0,2013-02-22 09:51:00
5:51 AM,1.0,-2.0,87,30.41,10.0,Calm,Calm,-,N/A,,Clear,0,2013-02-22 10:51:00
6:51 AM,-2.0,-5.1,87,30.43,10.0,Calm,Calm,-,N/A,,Clear,0,2013-02-22 11:51:00
7:14 AM,-2.2,-5.8,85,30.31,10.0,Calm,Calm,-,N/A,,Scattered Clouds,0,2013-02-22 12:14:00
7:22 AM,-2.2,-5.8,85,30.31,10.0,Calm,Calm,-,N/A,,Mostly Cloudy,0,2013-02-22 12:22:00
7:48 AM,-0.4,-4.0,85,30.31,10.0,Calm,Calm,-,N/A,,Overcast,0,2013-02-22 12:48:00
7:51 AM,-0.0,-2.9,88,30.43,10.0,Calm,Calm,-,N/A,,Overcast,0,2013-02-22 12:51:00
8:51 AM,9.0,8.1,96,30.42,10.0,Calm,Calm,-,N/A,,Overcast,0,2013-02-22 13:51:00
9:04 AM,10.4,10.4,100,30.31,10.0,Calm,Calm,-,N/A,,Overcast,0,2013-02-22 14:04:00
9:51 AM,19.0,17.1,92,30.39,4.0,Calm,Calm,-,N/A,,Mostly Cloudy,0,2013-02-22 14:51:00
9:58 AM,21.2,17.6,86,30.29,7.0,Calm,Calm,-,N/A,,Scattered Clouds,0,2013-02-22 14:58:00
10:51 AM,26.1,19.9,78,30.36,10.0,East,10.4,-,N/A,,Clear,80,2013-02-22 15:51:00
11:19 AM,26.6,19.4,74,30.27,10.0,ENE,8.1,-,N/A,,Mostly Cloudy,60,2013-02-22 16:19:00
11:51 AM,28.0,19.0,69,30.35,10.0,ENE,9.2,-,N/A,,Overcast,60,2013-02-22 16:51:00
12:51 PM,28.0,19.0,69,30.31,10.0,ENE,8.1,-,N/A,,Mostly Cloudy,70,2013-02-22 17:51:00
1:47 PM,28.4,19.4,69,30.20,10.0,ENE,9.2,-,N/A,,Partly Cloudy,60,2013-02-22 18:47:00
1:51 PM,28.9,19.0,67,30.28,10.0,ENE,8.1,-,N/A,,Partly Cloudy,70,2013-02-22 18:51:00
2:51 PM,28.9,19.0,67,30.27,10.0,ENE,6.9,-,N/A,,Clear,60,2013-02-22 19:51:00
3:51 PM,28.9,19.9,69,30.25,10.0,ENE,8.1,-,N/A,,Clear,60,2013-02-22 20:51:00
4:51 PM,28.0,19.0,69,30.24,10.0,ENE,6.9,-,N/A,,Partly Cloudy,60,2013-02-22 21:51:00
5:51 PM,26.1,18.0,71,30.24,10.0,ENE,8.1,-,N/A,,Clear,60,2013-02-22 22:51:00
6:51 PM,26.1,18.0,71,30.25,10.0,East,4.6,-,N/A,,Partly Cloudy,80,2013-02-22 23:51:00
7:51 PM,26.1,18.0,71,30.22,10.0,ENE,3.5,-,N/A,,Overcast,60,2013-02-23 00:51:00
8:51 PM,25.0,18.0,75,30.20,10.0,ENE,3.5,-,N/A,,Overcast,60,2013-02-23 01:51:00
9:51 PM,24.1,17.1,75,30.18,10.0,Calm,Calm,-,N/A,,Overcast,0,2013-02-23 02:51:00
10:51 PM,30.0,19.0,64,30.16,9.0,SSE,4.6,-,0.00,Snow,Light Snow,160,2013-02-23 03:51:00
11:51 PM,30.0,19.0,64,30.13,10.0,South,10.4,-,0.00,,Overcast,170,2013-02-23 04:51:00